Regional Weather Roundup
Issued by NWS

Home | Current Version | Previous Version | Graphics & Text | Print | Product List | Glossary On
Versions: 1 2 3 4 5 6 7 8 9 10 11 12 13 14 15 16 17 18 19 20 21 22 23 24 25 26 27 28 29 30 31 32 33 34 35 36 37 38 39 40 41 42 43 44 45 46 47 48 49 50
000
ASUS43 KDMX 180601
RWRIA

WEATHER ROUNDUP FOR IOWA
NATIONAL WEATHER SERVICE DES MOINES IA
100 AM CDT FRI AUG 18 2017

NOTE: "FAIR" INDICATES FEW OR NO CLOUDS BELOW 12,000 FEET WITH NO
SIGNIFICANT WEATHER AND/OR OBSTRUCTIONS TO VISIBILITY.

* - THESE STATIONS ARE NOT NWS STATIONS...THUS NOT UNDER NWS
QUALITY CONTROL.  THEY ALSO DO NOT REPORT WEATHER SUCH
AS PRECIPITATION OR FOG.

IAZ001>003-012>014-020>022-031>034-043>046-180700-
   NORTHWEST IOWA

CITY           SKY/WX    TMP DP  RH WIND       PRES   REMARKS
CARROLL *      PTCLDY    61  59  94 CALM      29.93S
CHEROKEE *     CLEAR     59  59 100 CALM      29.92S
DENISON *      PTCLDY    59  59 100 CALM      29.95R FOG
LE MARS *      PTCLDY    59  59 100 CALM      29.90F
ORANGE CITY *  PTCLDY    66  63  88 CALM      29.91F
SHELDON *      CLOUDY    59  57  94 E5        29.90S
SIOUX CITY     CLEAR     61  61 100 SE5       29.91S
6HR MIN TEMP:  60; 6HR MAX TEMP:  80;

SPENCER        FOG       57  56  96 CALM      29.91F VSB 3/4
6HR MIN TEMP:  57; 6HR MAX TEMP:  77;

STORM LAKE *   CLEAR     63  59  88 W5        29.93S
$$

IAZ055>058-069>071-079>083-090>094-180700-
   SOUTHWEST IOWA

CITY           SKY/WX    TMP DP  RH WIND       PRES   REMARKS
ATLANTIC *     PTCLDY    61  59  94 CALM      29.94R
AUDUBON *      CLEAR     57  55  94 CALM      29.95R
CLARINDA *     FOG       57  57 100 CALM      29.97R VSB 1
COUNCIL BLFS * CLEAR     68  63  83 SW3       29.95R
CRESTON *      CLEAR     63  59  88 SW5       29.96R
HARLAN  *      CLEAR     59  59 100 CALM      29.97R
LAMONI         CLEAR     65  60  84 SW5       29.94S
6HR MIN TEMP:  63; 6HR MAX TEMP:  80;

RED OAK *      CLEAR     61  59  94 CALM      29.95R
SHENANDOAH *   CLEAR     61  59  94 CALM      29.95R
$$

IAZ047>049-059>061-072>074-084-180700-
   CENTRAL IOWA

CITY           SKY/WX    TMP DP  RH WIND       PRES   REMARKS
AMES           CLEAR     60  60 100 W5        29.91R
6HR MIN TEMP:  60; 6HR MAX TEMP:  76;

ANKENY *       CLEAR     64  61  88 W7        29.92R
BOONE *        CLEAR     63  61  94 W6        29.92R
CHARITON *     CLEAR     64  59  82 SW6       29.92S
DES MOINES     CLEAR     67  61  81 W7        29.91R
6HR MIN TEMP:  67; 6HR MAX TEMP:  81;

GRINNELL*      CLEAR     63  61  94 CALM      29.92R
KNOXVILLE *    CLEAR     64  59  82 W7        29.90R
MARSHALLTOWN   CLEAR     59  59 100 W5        29.90R
6HR MIN TEMP:  59; 6HR MAX TEMP:  75;

NEWTON *       CLEAR     63  61  94 W6        29.91R
PELLA *        CLEAR     64  60  88 W5        29.92R
PERRY *          N/A     60  59  97 W6        29.92S
$$

IAZ004>006-015-016-023>025-035-036-180700-
   NORTH CENTRAL IOWA

CITY           SKY/WX    TMP DP  RH WIND       PRES   REMARKS
ALGONA *       CLEAR     59  59 100 W5        29.91S
CLARION *      CLEAR     57  57 100 CALM      29.91S FOG
ESTHERVILLE    CLEAR     56  56 100 W3        29.90F
6HR MIN TEMP:  56; 6HR MAX TEMP:  73;

FORT DODGE *   PTCLDY    61  55  82 CALM      29.93R
MASON CITY     CLEAR     61  59  93 W9        29.91R
6HR MIN TEMP:  61; 6HR MAX TEMP:  71;

FOREST CITY *    N/A     61  59  94 CALM      29.90R
WEBSTER CITY * CLEAR     59  59 100 W7        29.90R
IOWA FALLS *     N/A     61  60  96 W7        29.92R
$$

IAZ007>011-017>019-026>030-037>042-050>054-066-180700-
   NORTHEAST IOWA

CITY           SKY/WX    TMP DP  RH WIND       PRES   REMARKS
CEDAR RAPIDS   CLEAR     61  61 100 W7        29.86S
6HR MIN TEMP:  61; 6HR MAX TEMP:  75;

CHARLES CITY * CLEAR     61  61 100 CALM      29.88R
CLINTON *      CLEAR     63  63 100 W8        29.84S
DECORAH *      CLOUDY    66  63  88 CALM      29.84S
DUBUQUE        CLEAR     65  62  90 NW8       29.84S
6HR MIN TEMP:  65; 6HR MAX TEMP:  72;

MONTICELLO *   CLEAR     64  63  94 W8        29.84S
OELWEIN *      CLEAR     61  61 100 W6        29.88R
WATERLOO       CLEAR     63  60  90 W6        29.87R
6HR MIN TEMP:  63; 6HR MAX TEMP:  74;

$$

IAZ064-065-067-068-078-180700-
   EAST CENTRAL IOWA

CITY           SKY/WX    TMP DP  RH WIND       PRES   REMARKS
DAVENPORT      CLEAR     66  62  87 W8        29.86F
6HR MIN TEMP:  66; 6HR MAX TEMP:  76;

IOWA CITY      CLEAR     66  62  87 W6        29.88S
6HR MIN TEMP:  66; 6HR MAX TEMP:  79;

MUSCATINE *    MOCLDY    68  63  83 W7        29.87R
QUAD CITIES    CLEAR     70  62  76 W9        29.84F
6HR MIN TEMP:  68; 6HR MAX TEMP:  78;

$$

IAZ062-063-075>077-085>089-095>099-180700-
   SOUTHEAST IOWA

CITY           SKY/WX    TMP DP  RH WIND       PRES   REMARKS
BURLINGTON     CLEAR     67  63  87 W3        29.87S
6HR MIN TEMP:  67; 6HR MAX TEMP:  80;

FAIRFIELD *    MOCLDY    64  59  82 W6        29.88S
FORT MADISON * CLEAR     68  63  83 CALM      29.89S
KEOKUK *       CLEAR     66  61  82 W5        29.88S
OSKALOOSA *      N/A     61  59  92 W5        29.90S
OTTUMWA        CLEAR     65  60  84 W7        29.89S
6HR MIN TEMP:  65; 6HR MAX TEMP:  80;

WASHINGTON *   CLEAR     64  63  94 W7        29.89S
$$

ABBREVIATIONS USED IN REMARKS
   TC - TEMPERATURES IN CELSIUS
  WCI - WIND CHILL INDEX
   HX - HEAT INDEX
  VSB - VISIBILITY
$$





USA.gov is the U.S. government's official web portal to all federal, state and local government web resources and services.